User: anonymous   Login
Location: Caltech
(34.1382°N, 118.1253°W)
Time: 02:59:19
(UTC-07:00)
Language:

ADEOS II - Orbit

View from above orbital plane
View from above orbital plane
View from above satellite
View from above satellite

Ground track
Ground track

The orbit data is extracted from the following two-line orbital elements,

1 27597U 02056A   15141.05985292  .00000248  00000-0  11865-3 0  9993
2 27597 098.2858 135.9616 0002153 069.5015 336.3436 14.27082837647287
Epoch (UTC): 21 May 2015 01:26:11
Eccentricity: 0.0002153
inclination: 98.2858°
perigee height: 800 km
apogee height: 803 km
right ascension of ascending node: 135.9616°
argument of perigee: 69.5015°
revolutions per day: 14.27082837
mean anomaly at epoch: 336.3436°
orbit number at epoch: 64728

The dashed part of the orbit path shows where the satellite is in the earth's shadow,  

DLR